FLOCK 3P-10

Last updated on Wed Feb 14 2018 16:20:23 GMT+0000 (Coordinated Universal Time)

1 41974U 17008AC 18044.91124359 .00001683 00000-0 72566-4 0 9990 2 41974 97.4661 110.4550 0009631 71.8728 288.3557 15.23921230 55149

Satellite not in orbit

FLOCK 3P-10